Tracking 19854 objects as of 22-Sep-2019
HD Live streaming from Space Station
objects crossing your sky now

FENGYUN 1C DEB

Track FENGYUN 1C DEB now!
10-day predictions


NORAD ID: 33713
Int'l Code: 1999-025DHA
Perigee: 552.8 km
Apogee: 794.7 km
Inclination: 99.0 °
Period: 98.1 minutes
Semi major axis: 7044 km
RCS: 0.0118 m2 (small)
Launch date: May 10, 1999
Source: People's Republic of China (PRC)
Launch site: Taiyaun Space Center, China (TSC)

Note: This is SATELLITE DEBRIS
aabbcc
Your satellite tracking list
Your tracking list is empty




NASA's NSSDC Master Catalog

Two Line Element Set (TLE):
1 33713U 99025DHA 19263.20402094 +.00000637 +00000-0 +98229-4 0  9994
2 33713 099.0418 355.1246 0171692 071.0676 290.9048 14.68252588617701
Source of the keplerian elements: AFSPC